Skip to main content Skip to accessibility
This website is not compatible with your web browser. You should install a newer browser. If you live in Jersey and need help upgrading call the States of Jersey web team on 440099.
Homegov.je

L'înformâtion et les sèrvices publyis pouor I'Île dé Jèrri

  • Choose the service you want to log in to:

  • gov.je

    Update your notification preferences

  • one.gov.je

    Access government and parish services

  • CAESAR

    Clear goods through customs or claim relief

  • Talentlink

    View or update your States of Jersey job application

CI Airfield TAFs

JERSEY - EGJJ

EGJJ 241357Z 2415/2424 29014KT 9999 SCT006 PROB30 TEMPO 2415/2424 4000 BR BKN004=

GUERNSEY - EGJB

EGJB 241357Z 2415/2424 30014KT 9999 SCT006 PROB30 TEMPO 2415/2424 4000 BR BKN004=

ALDERNEY - EGJA

EGJA 241357Z 2415/2424 30012KT 9999 FEW010 PROB30 TEMPO 2415/2424 4000 BR BKN004=

Back to top
rating button